Weather History for Hilo, HI

Change the Weather History Date:

Tuesday, November 15, 2011

  Actual Average Record
Temperature  
Mean Temperature 75 °F 74 °F  
Max Temperature 82 °F 81 °F 85 °F (1954)
Min Temperature 67 °F 67 °F 61 °F (1980)
Degree Days  
Heating Degree Days 0 0  
Month to date heating degree days 0 0  
Since 1 July heating degree days 0 0  
Cooling Degree Days 10 9  
Month to date cooling degree days 129 143  
Year to date cooling degree days 2951 2878  
Growing Degree Days 24 (Base 50)    
Moisture  
Dew Point 66 °F    
Average Humidity 78    
Maximum Humidity 97    
Minimum Humidity 58    
Precipitation  
Precipitation 0.06 in 0.55 in 6.40 in (1994)
Month to date precipitation 13.50 7.84  
Year to date precipitation 73.43 107.49  
Snow  
Snow 0.00 in - - ()
Month to date snowfall 0.0  
Since 1 July snowfall 0.0  
Since 1 September snowfall 0.0  
Snow Depth 0.00 in    
Sea Level Pressure  
Sea Level Pressure 30.02 in    
Wind  
Wind Speed 6 mph (SSW)    
Max Wind Speed 13 mph    
Max Gust Speed 15 mph    
Visibility 10 miles    
Events Rain    
T = Trace of Precipitation, MM = Missing Value Source: NWS Daily Summary

Daily Weather History Graph

Daily Weather History Graph

Search for Another Location

Airport:

Trip Planner

Search our weather history database for the weather conditions in past years. The results will help you decide how hot, cold, wet, or windy it might be!

Date:

Astronomy

Nov. 15, 2011 Rise Set
Actual Time 6:28 AM HST 5:40 PM HST
Civil Twilight 6:05 AM HST 6:03 PM HST
Nautical Twilight 5:38 AM HST 6:30 PM HST
Astronomical Twilight 5:12 AM HST 6:56 PM HST
Moon 10:01 PM HST (11/15) 10:31 AM HST (11/15)
Length of Visible Light 11h 58m
Length of Day
11h 12m
Waning Gibbous, 77% of the Moon is Illuminated
Nov 15
Waning Gibbous
Nov 18
Last Quarter
Nov 24
New
Dec 1
First Quarter
Dec 10
Full

Hourly Weather History & Observations

Time (HST) Temp. Heat Index Dew Point Humidity Pressure Visibility Wind Dir Wind Speed Gust Speed Precip Events Conditions
12:24 AM 69.8 °F - 66.2 °F 88% 30.06 in 10.0 mi SW 4.6 mph - N/A   Mostly Cloudy
12:34 AM 69.8 °F - 66.2 °F 88% 30.05 in 10.0 mi SSW 4.6 mph - N/A   Mostly Cloudy
12:53 AM 70.0 °F - 66.0 °F 87% 30.05 in 10.0 mi Calm Calm - N/A   Overcast
1:53 AM 69.1 °F - 68.0 °F 96% 30.03 in 8.0 mi SSW 4.6 mph - 0.04 in Rain Light Rain
2:45 AM 69.8 °F - 66.2 °F 88% 30.01 in 10.0 mi WSW 4.6 mph - N/A Rain Light Rain
2:53 AM 69.1 °F - 66.0 °F 90% 30.01 in 10.0 mi WSW 3.5 mph - 0.02 in   Mostly Cloudy
3:01 AM 69.8 °F - 66.2 °F 88% 30.01 in 10.0 mi West 3.5 mph - N/A   Scattered Clouds
3:53 AM 69.1 °F - 66.0 °F 90% 30.01 in 10.0 mi SW 4.6 mph - N/A   Overcast
4:53 AM 69.1 °F - 64.9 °F 87% 30.00 in 10.0 mi Calm Calm - N/A   Overcast
5:53 AM 68.0 °F - 64.0 °F 87% 30.01 in 10.0 mi WSW 5.8 mph - 0.00 in   Mostly Cloudy
6:53 AM 66.9 °F - 63.0 °F 87% 30.03 in 10.0 mi WSW 6.9 mph - N/A   Mostly Cloudy
7:03 AM 68.0 °F - 62.6 °F 83% 30.04 in 10.0 mi SW 5.8 mph - N/A   Mostly Cloudy
7:26 AM 69.8 °F - 64.4 °F 83% 30.05 in 10.0 mi South 5.8 mph - N/A   Mostly Cloudy
7:53 AM 71.1 °F - 66.0 °F 84% 30.04 in 7.0 mi SW 8.1 mph - 0.00 in Rain Light Rain
8:53 AM 75.0 °F - 66.9 °F 76% 30.05 in 10.0 mi SW 6.9 mph - 0.00 in   Scattered Clouds
9:53 AM 79.0 °F - 66.9 °F 66% 30.05 in 10.0 mi Variable 4.6 mph - N/A   Scattered Clouds
10:20 AM 78.8 °F - 66.2 °F 65% 30.04 in 10.0 mi ENE 5.8 mph - N/A   Mostly Cloudy
10:36 AM 78.8 °F - 66.2 °F 65% 30.04 in 10.0 mi ESE 3.5 mph - N/A   Scattered Clouds
10:53 AM 79.0 °F - 66.9 °F 66% 30.03 in 10.0 mi East 10.4 mph - N/A   Partly Cloudy
11:28 AM 80.6 °F 82.7 °F 66.2 °F 61% 30.01 in 10.0 mi ESE 5.8 mph - N/A   Partly Cloudy
11:53 AM 80.1 °F 82.3 °F 66.9 °F 64% 30.00 in 10.0 mi ESE 9.2 mph - N/A   Partly Cloudy
12:53 PM 81.0 °F 83.3 °F 66.9 °F 62% 29.97 in 10.0 mi East 10.4 mph - N/A   Partly Cloudy
1:53 PM 82.0 °F 84.1 °F 66.0 °F 58% 29.96 in 10.0 mi ESE 10.4 mph - N/A   Partly Cloudy
2:53 PM 81.0 °F 83.0 °F 66.0 °F 60% 29.96 in 10.0 mi East 11.5 mph - N/A   Scattered Clouds
3:53 PM 79.0 °F - 66.0 °F 64% 29.96 in 10.0 mi ESE 9.2 mph - N/A   Mostly Cloudy
4:53 PM 75.9 °F - 66.9 °F 74% 29.97 in 10.0 mi East 8.1 mph - N/A   Clear
5:53 PM 73.9 °F - 66.0 °F 76% 29.99 in 10.0 mi Calm Calm - N/A   Partly Cloudy
6:19 PM 73.4 °F - 68.0 °F 83% 29.99 in 10.0 mi Calm Calm - N/A   Mostly Cloudy
6:53 PM 73.0 °F - 68.0 °F 84% 30.00 in 10.0 mi WSW 3.5 mph - N/A   Mostly Cloudy
7:00 PM 73.4 °F - 66.2 °F 78% 30.01 in 10.0 mi WSW 3.5 mph - N/A   Mostly Cloudy
7:53 PM 73.0 °F - 66.9 °F 81% 30.02 in 10.0 mi WSW 4.6 mph - N/A   Scattered Clouds
8:05 PM 73.4 °F - 66.2 °F 78% 30.03 in 10.0 mi WSW 5.8 mph - N/A   Mostly Cloudy
8:16 PM 73.4 °F - 66.2 °F 78% 30.03 in 10.0 mi WSW 4.6 mph - N/A   Scattered Clouds
8:24 PM 73.4 °F - 66.2 °F 78% 30.03 in 10.0 mi SE 4.6 mph - N/A   Mostly Cloudy
8:36 PM 71.6 °F - 66.2 °F 83% 30.03 in 10.0 mi SW 3.5 mph - N/A   Scattered Clouds
8:53 PM 72.0 °F - 66.9 °F 84% 30.03 in 10.0 mi WSW 3.5 mph - N/A   Mostly Cloudy
9:03 PM 73.4 °F - 66.2 °F 78% 30.04 in 10.0 mi Calm Calm - N/A   Mostly Cloudy
9:16 PM 71.6 °F - 66.2 °F 83% 30.04 in 10.0 mi WSW 5.8 mph - N/A   Mostly Cloudy
9:53 PM 71.1 °F - 64.9 °F 81% 30.04 in 10.0 mi WSW 6.9 mph - N/A   Clear
10:53 PM 70.0 °F - 63.0 °F 78% 30.03 in 10.0 mi SW 5.8 mph - N/A   Clear
11:53 PM 70.0 °F - 63.0 °F 78% 30.03 in 10.0 mi WSW 6.9 mph - N/A   Overcast